TimeCDT,TemperatureF,Dew PointF,Humidity,Sea Level PressureIn,VisibilityMPH,Wind Direction,Wind SpeedMPH,Gust SpeedMPH,PrecipitationIn,Events,Conditions,WindDirDegrees,DateUTC
12:15 AM,37.9,30.9,76,30.19,10.0,SW,4.6,-,N/A,,Clear,220,2012-10-08 05:15:00
12:35 AM,37.4,30.2,75,30.19,10.0,SW,4.6,-,N/A,,Clear,220,2012-10-08 05:35:00
12:55 AM,37.4,30.6,76,30.19,10.0,SW,6.9,-,N/A,,Clear,230,2012-10-08 05:55:00
1:15 AM,37.0,30.7,78,30.19,10.0,WSW,8.1,-,N/A,,Clear,240,2012-10-08 06:15:00
1:35 AM,38.8,32.0,76,30.19,10.0,WSW,5.8,-,N/A,,Clear,250,2012-10-08 06:35:00
1:55 AM,38.8,31.8,76,30.20,10.0,WSW,5.8,-,N/A,,Clear,250,2012-10-08 06:55:00
2:15 AM,38.8,32.0,76,30.20,10.0,WSW,6.9,-,N/A,,Clear,250,2012-10-08 07:15:00
2:35 AM,37.9,32.0,79,30.20,10.0,West,4.6,-,N/A,,Clear,260,2012-10-08 07:35:00
2:55 AM,36.7,31.6,82,30.19,10.0,WSW,4.6,-,N/A,,Clear,240,2012-10-08 07:55:00
3:15 AM,36.1,32.4,86,30.19,10.0,SSW,4.6,-,N/A,,Clear,210,2012-10-08 08:15:00
3:35 AM,34.5,32.2,91,30.19,10.0,South,5.8,-,N/A,,Clear,190,2012-10-08 08:35:00
3:55 AM,33.8,32.9,96,30.18,10.0,SSW,5.8,-,N/A,,Clear,200,2012-10-08 08:55:00
4:15 AM,33.8,34.0,100,30.19,10.0,SSW,4.6,-,N/A,,Clear,200,2012-10-08 09:15:00
4:35 AM,33.8,34.0,100,30.19,10.0,Calm,Calm,-,N/A,,Clear,0,2012-10-08 09:35:00
4:55 AM,33.8,34.0,100,30.18,10.0,Calm,Calm,-,N/A,,Clear,0,2012-10-08 09:55:00
5:15 AM,33.6,33.8,100,30.18,10.0,SSW,3.5,-,N/A,,Clear,200,2012-10-08 10:15:00
5:35 AM,32.4,32.5,100,30.18,10.0,South,4.6,-,N/A,,Clear,190,2012-10-08 10:35:00
5:55 AM,32.9,33.1,100,30.19,10.0,Calm,Calm,-,N/A,,Clear,0,2012-10-08 10:55:00
6:15 AM,32.4,32.7,100,30.19,10.0,SSW,3.5,-,N/A,,Clear,200,2012-10-08 11:15:00
6:35 AM,31.6,31.8,100,30.19,10.0,South,3.5,-,N/A,,Clear,190,2012-10-08 11:35:00
6:55 AM,31.6,31.8,100,30.19,7.0,South,4.6,-,N/A,,Clear,190,2012-10-08 11:55:00
7:15 AM,31.6,31.8,100,30.19,5.0,SSW,3.5,-,N/A,,Clear,200,2012-10-08 12:15:00
7:35 AM,31.6,31.8,100,30.19,5.0,South,3.5,-,N/A,,Clear,190,2012-10-08 12:35:00
7:55 AM,32.5,-9999,N/A,30.19,5.0,SSW,5.8,-,N/A,,Clear,200,2012-10-08 12:55:00
8:15 AM,33.8,-9999,N/A,30.19,5.0,SSW,6.9,-,N/A,,Haze,210,2012-10-08 13:15:00
8:35 AM,35.8,-9999,N/A,30.19,7.0,SSW,8.1,-,N/A,,Clear,210,2012-10-08 13:35:00
8:55 AM,-9999,-9999,N/A,30.19,10.0,SSW,9.2,-,N/A,,Clear,200,2012-10-08 13:55:00
9:15 AM,39.7,39.4,99,30.19,10.0,SSW,8.1,-,N/A,,Clear,210,2012-10-08 14:15:00
9:35 AM,41.9,38.3,87,30.19,10.0,SSW,9.2,-,N/A,,Clear,200,2012-10-08 14:35:00
9:55 AM,45.5,37.9,75,30.19,10.0,SSW,8.1,-,N/A,,Clear,210,2012-10-08 14:55:00
10:15 AM,48.9,35.8,61,30.19,10.0,SW,8.1,-,N/A,,Clear,220,2012-10-08 15:15:00
10:35 AM,49.3,34.3,56,30.19,10.0,SW,9.2,-,N/A,,Clear,220,2012-10-08 15:35:00
10:55 AM,50.7,33.6,52,30.18,10.0,SSW,10.4,-,N/A,,Clear,210,2012-10-08 15:55:00
11:15 AM,52.7,33.1,47,30.19,10.0,SW,13.8,18.4,N/A,,Clear,220,2012-10-08 16:15:00
11:35 AM,54.0,33.3,46,30.18,10.0,SW,13.8,-,N/A,,Clear,230,2012-10-08 16:35:00
11:55 AM,54.0,32.7,45,30.17,10.0,SW,16.1,19.6,N/A,,Clear,220,2012-10-08 16:55:00
12:15 PM,54.0,32.0,43,30.17,10.0,SW,13.8,18.4,N/A,,Clear,220,2012-10-08 17:15:00
12:35 PM,54.1,31.3,42,30.16,10.0,WSW,13.8,20.7,N/A,,Clear,240,2012-10-08 17:35:00
12:55 PM,55.6,32.0,41,30.15,10.0,SSW,17.3,-,N/A,,Clear,210,2012-10-08 17:55:00
1:15 PM,56.5,33.3,42,30.14,10.0,SSW,17.3,21.9,N/A,,Clear,200,2012-10-08 18:15:00
1:35 PM,56.5,32.9,41,30.12,10.0,SW,12.7,20.7,N/A,,Clear,220,2012-10-08 18:35:00
1:55 PM,56.7,33.1,41,30.12,10.0,SSW,15.0,19.6,N/A,,Clear,200,2012-10-08 18:55:00
2:15 PM,57.9,33.3,39,30.10,10.0,SW,11.5,19.6,N/A,,Clear,220,2012-10-08 19:15:00
2:35 PM,59.0,34.2,39,30.09,10.0,SSW,13.8,21.9,N/A,,Clear,200,2012-10-08 19:35:00
2:55 PM,59.0,34.2,39,30.08,10.0,SW,13.8,21.9,N/A,,Clear,220,2012-10-08 19:55:00
3:15 PM,59.0,33.4,38,30.07,10.0,SW,15.0,20.7,N/A,,Clear,220,2012-10-08 20:15:00
3:35 PM,59.0,33.8,39,30.06,10.0,SSW,11.5,-,N/A,,Clear,210,2012-10-08 20:35:00
3:55 PM,59.2,33.8,38,30.05,10.0,SSW,15.0,19.6,N/A,,Clear,200,2012-10-08 20:55:00
4:15 PM,59.2,34.2,39,30.05,10.0,SW,13.8,19.6,N/A,,Clear,220,2012-10-08 21:15:00
4:35 PM,59.0,34.0,39,30.04,10.0,SSW,10.4,-,N/A,,Clear,200,2012-10-08 21:35:00
4:55 PM,59.0,33.8,39,30.04,10.0,SSW,16.1,-,N/A,,Clear,210,2012-10-08 21:55:00
5:15 PM,59.0,33.8,39,30.04,10.0,SW,12.7,-,N/A,,Clear,220,2012-10-08 22:15:00
5:35 PM,59.0,34.9,40,30.03,10.0,SW,13.8,19.6,N/A,,Clear,220,2012-10-08 22:35:00
5:55 PM,58.5,35.4,42,30.03,10.0,SW,11.5,-,N/A,,Clear,220,2012-10-08 22:55:00
6:15 PM,56.7,35.1,44,30.03,10.0,SSW,11.5,-,N/A,,Clear,210,2012-10-08 23:15:00
6:35 PM,56.5,36.1,47,30.03,10.0,SSW,9.2,-,N/A,,Clear,210,2012-10-08 23:35:00
6:55 PM,54.7,36.7,51,30.02,10.0,SSW,9.2,-,N/A,,Clear,200,2012-10-08 23:55:00
7:35 PM,52.0,38.5,60,30.03,10.0,SSW,8.1,-,N/A,,Clear,200,2012-10-09 00:35:00
7:55 PM,51.4,38.5,61,30.03,10.0,SSW,8.1,-,N/A,,Clear,200,2012-10-09 00:55:00
8:15 PM,51.3,38.7,62,30.03,10.0,SSW,6.9,-,N/A,,Clear,200,2012-10-09 01:15:00
8:35 PM,49.5,37.8,64,30.03,10.0,SSW,8.1,-,N/A,,Clear,200,2012-10-09 01:35:00
8:55 PM,49.1,37.4,64,30.04,10.0,SSW,8.1,-,N/A,,Clear,200,2012-10-09 01:55:00
9:15 PM,49.1,37.8,65,30.04,10.0,SSW,6.9,-,N/A,,Clear,200,2012-10-09 02:15:00
9:35 PM,49.1,38.7,67,30.04,10.0,South,6.9,-,N/A,,Clear,190,2012-10-09 02:35:00
9:55 PM,48.0,38.5,70,30.04,10.0,South,5.8,-,N/A,,Clear,190,2012-10-09 02:55:00
10:15 PM,45.9,37.8,73,30.04,10.0,South,5.8,-,N/A,,Clear,180,2012-10-09 03:15:00
10:55 PM,45.0,37.8,76,30.04,10.0,South,6.9,-,N/A,,Clear,190,2012-10-09 03:55:00
11:35 PM,46.2,39.0,76,30.04,10.0,South,6.9,-,N/A,,Clear,190,2012-10-09 04:35:00
11:55 PM,46.4,39.2,76,30.04,10.0,South,6.9,-,N/A,,Clear,180,2012-10-09 04:55:00